Tracking 35275 objects as of 9-Sep-2026
HD Live streaming from Space Station
objects crossing your sky now

SL-12 DEB


SL-12 DEB is no longer on orbit


NORAD ID: 29409
Int'l Code: 1989-039BM
Launch date: May 31, 1989
Source: Commonwealth of Independent States (former USSR) (CIS)
Launch site: TYURATAM MISSILE AND SPACE COMPLEX (TTMTR)
Decay date: 2007-01-09

Note: This is SATELLITE DEBRIS
Your satellite tracking list
Your tracking list is empty




NASA's NSSDC Master Catalog

Two Line Element Set (TLE):
1 29409U 89039BM  07014.88777160 +.00017558 +00000-0 +29322-2 0  9995
2 29409 066.7408 217.3975 5784979 046.4099 349.4526 04.37304167006680
Source of the keplerian elements: AFSPC